Location: Newark
(58.9986°N, 38.5006°E)
Time: 04:07:52
(UTC+00:00)

Vanguard 2 Rocket - All Passes

Search period start: 14 April 2021 00:00
Search period end: 24 April 2021 00:00
Orbit: 553 x 3326 km, 32.9° (Epoch: 13 April)

Date Brightness Start Highest point End Pass type
(mag) Time Alt. Az. Time Alt. Az. Time Alt. Az.
14 Apr - 12:02:45 10° SSW 12:14:57 20° SSE 12:25:34 10° ESE daylight
14 Apr - 14:14:58 10° SW 14:28:27 25° S 14:38:59 10° SE daylight
14 Apr - 16:31:13 10° WSW 16:41:11 19° SSW 16:48:57 10° SSE daylight
15 Apr - 11:03:45 10° S 11:14:30 17° SSE 11:24:25 10° ESE daylight
15 Apr - 13:13:57 10° SW 13:27:58 25° S 13:39:29 10° SE daylight
15 Apr - 15:28:52 10° WSW 15:41:15 23° SSW 15:50:48 10° SSE daylight
15 Apr - 17:48:55 10° WSW 17:53:03 12° SW 17:56:44 10° SSW visible
16 Apr - 10:06:18 10° SSE 10:14:11 14° SE 10:21:52 10° ESE daylight
16 Apr - 12:13:33 10° SSW 12:27:22 24° SSE 12:39:26 10° ESE daylight
16 Apr - 14:27:04 10° SW 14:41:00 26° S 14:52:01 10° SE daylight
16 Apr - 16:44:26 10° WSW 16:53:33 17° SSW 17:00:55 10° S daylight
17 Apr - 11:13:52 10° SSW 11:26:45 22° SSE 11:38:45 10° ESE daylight
17 Apr - 13:25:46 10° SW 13:40:28 27° S 13:52:41 10° SE daylight
17 Apr - 15:41:37 10° WSW 15:53:39 21° SSW 16:03:13 10° SSE daylight
18 Apr - 10:15:08 10° S 10:26:15 18° SSE 10:37:13 10° ESE daylight
18 Apr - 12:25:03 10° SW 12:39:47 27° S 12:52:49 10° ESE daylight
18 Apr - 14:39:31 10° WSW 14:53:26 25° SSW 15:04:42 10° SSE daylight
18 Apr - 16:58:26 10° WSW 17:05:42 14° SW 17:11:56 10° SSW daylight
19 Apr - 09:17:55 10° SSE 09:26:00 14° SE 09:34:14 10° ESE daylight
19 Apr - 11:24:58 10° SSW 11:39:03 25° SSE 11:52:22 10° ESE daylight
19 Apr - 13:38:00 10° SW 13:52:55 27° S 14:05:33 10° SE daylight
19 Apr - 15:54:48 10° WSW 16:05:55 19° SSW 16:15:05 10° S daylight
20 Apr - 10:25:38 10° SSW 10:38:25 22° SSE 10:51:16 10° ESE daylight
20 Apr - 12:37:03 10° SW 12:52:11 28° S 13:05:50 10° SE daylight
20 Apr - 14:52:20 10° WSW 15:05:45 23° SSW 15:16:58 10° SSE daylight
20 Apr - 17:14:47 10° WSW 17:17:40 11° SW 17:20:23 10° SW daylight
21 Apr - 09:27:15 10° S 09:37:59 18° SE 09:49:16 10° ESE daylight
21 Apr - 11:36:42 10° SW 11:51:23 28° S 12:05:34 10° ESE daylight
21 Apr - 13:50:36 10° WSW 14:05:17 27° SSW 14:18:04 10° SSE daylight
21 Apr - 16:08:40 10° WSW 16:17:59 16° SW 16:26:05 10° S daylight
22 Apr - 08:30:25 10° SSE 08:37:51 14° SE 08:45:46 10° ESE daylight
22 Apr - 10:37:00 10° SSW 10:50:37 26° SSE 11:04:42 10° ESE daylight
22 Apr - 12:49:28 10° SW 13:04:33 28° S 13:18:32 10° SE daylight
22 Apr - 15:05:35 10° WSW 15:17:56 21° SSW 15:28:39 10° S daylight
23 Apr - 09:38:03 10° SSW 09:50:03 22° SSE 10:03:08 10° ESE daylight
23 Apr - 11:48:55 10° SW 12:03:43 29° S 12:18:25 10° SE daylight
23 Apr - 14:03:32 10° WSW 14:17:33 25° SSW 14:30:08 10° SSE daylight
23 Apr - 16:24:05 10° WSW 16:29:54 12° SW 16:35:19 10° SSW daylight
